WXM80 ListenWXM80 Stop

You find our weather info also at:

UK Metoffice

WeatherCloud

Weather Underground

Northeastern Weather Network

AWEKAS

Citizen Weather Observer Program (CWOP)

HAMweather, WeatherForYou, PWS Weather


Weather Underground History page Text

Daily Summary for January 2, 2017 Units:  Both    English   Metric
« Previous Day
Next Day »
Daily Weekly Monthly Yearly Custom
  High: Low: Average:
Temperature: 40.2 °F /  4.6 °C 31.6 °F /  -0.2 °C 37.3 °F /  2.9 °C
Dew Point: 38.9 °F /  3.8 °C 26.9 °F /  -2.8 °C 34.1 °F /  1.2 °C
Humidity: 97 % 76 % 89 %
Wind Speed: 13.4 mph /  21.6 km/h - 5.2 mph /  8.4 km/h
Wind Gust: 29.0 mph /  46.7 km/h - -
Wind:- - East
Pressure: 30.50 in /  1032.7 hPa 30.24 in /  1023.9 hPa -
Precipitation: 0.12 in /  3.05 mm    
Historical Graphs
 
 
Tabular Data for January 2, 2017
Time Temperature Dew Point Pressure Wind Wind Speed Wind Gust Humidity Rainfall Rate (Hourly)
00:00 31.6 °F /  -0.2 °C 27.3 °F /  -2.6 °C 30.42 in /  1030 hPa West 0.2 mph /  0.3 km/h 29.0 mph /  46.7 km/h 84 % 0.00 in /  0 mm
00:05 31.7 °F /  -0.2 °C 27.4 °F /  -2.6 °C 30.42 in /  1030 hPa Calm   29.0 mph /  46.7 km/h 84 % 0.00 in /  0 mm
00:10 31.8 °F /  -0.1 °C 27.5 °F /  -2.5 °C 30.42 in /  1030 hPa West 0.3 mph /  0.5 km/h 29.0 mph /  46.7 km/h 84 % 0.00 in /  0 mm
00:15 32.0 °F /  0 °C 27.4 °F /  -2.6 °C 30.42 in /  1030 hPa West 0.7 mph /  1.1 km/h 29.0 mph /  46.7 km/h 83 % 0.00 in /  0 mm
00:20 32.1 °F /  0.1 °C 27.5 °F /  -2.5 °C 30.42 in /  1030 hPa Calm   29.0 mph /  46.7 km/h 83 % 0.00 in /  0 mm
00:25 32.2 °F /  0.1 °C 27.6 °F /  -2.4 °C 30.42 in /  1030 hPa NE 2.1 mph /  3.4 km/h 29.0 mph /  46.7 km/h 83 % 0.00 in /  0 mm
00:30 32.3 °F /  0.2 °C 27.4 °F /  -2.6 °C 30.42 in /  1030 hPa NE 1.4 mph /  2.3 km/h 29.0 mph /  46.7 km/h 82 % 0.00 in /  0 mm
00:35 32.3 °F /  0.2 °C 27.1 °F /  -2.7 °C 30.42 in /  1030 hPa Calm   29.0 mph /  46.7 km/h 81 % 0.00 in /  0 mm
00:40 32.3 °F /  0.2 °C 27.1 °F /  -2.7 °C 30.42 in /  1030 hPa NE 0.3 mph /  0.5 km/h 29.0 mph /  46.7 km/h 81 % 0.00 in /  0 mm
00:45 32.3 °F /  0.2 °C 27.1 °F /  -2.7 °C 30.41 in /  1029.7 hPa Calm   29.0 mph /  46.7 km/h 81 % 0.00 in /  0 mm
00:50 32.3 °F /  0.2 °C 27.1 °F /  -2.7 °C 30.41 in /  1029.7 hPa NE 0.2 mph /  0.3 km/h 29.0 mph /  46.7 km/h 81 % 0.00 in /  0 mm
00:55 32.3 °F /  0.2 °C 27.1 °F /  -2.7 °C 30.41 in /  1029.7 hPa Calm   29.0 mph /  46.7 km/h 81 % 0.00 in /  0 mm
01:01 32.3 °F /  0.2 °C 27.1 °F /  -2.7 °C 30.41 in /  1029.7 hPa Calm   29.0 mph /  46.7 km/h 81 % 0.00 in /  0 mm
01:06 32.2 °F /  0.1 °C 27.0 °F /  -2.8 °C 30.41 in /  1029.7 hPa Calm   29.0 mph /  46.7 km/h 81 % 0.00 in /  0 mm
01:08 32.2 °F /  0.1 °C 27.0 °F /  -2.8 °C 30.41 in /  1029.7 hPa Calm   29.0 mph /  46.7 km/h 81 % 0.00 in /  0 mm
01:13 32.1 °F /  0.1 °C 26.9 °F /  -2.8 °C 30.42 in /  1030 hPa NE 0.9 mph /  1.4 km/h 29.0 mph /  46.7 km/h 81 % 0.00 in /  0 mm
01:18 32.0 °F /  0 °C 27.1 °F /  -2.7 °C 30.41 in /  1029.7 hPa NE 0.8 mph /  1.3 km/h 29.0 mph /  46.7 km/h 82 % 0.00 in /  0 mm
01:23 31.9 °F /  -0.1 °C 27.0 °F /  -2.8 °C 30.41 in /  1029.7 hPa Calm   29.0 mph /  46.7 km/h 82 % 0.00 in /  0 mm
01:28 31.9 °F /  -0.1 °C 27.3 °F /  -2.6 °C 30.41 in /  1029.7 hPa NE 0.2 mph /  0.3 km/h 29.0 mph /  46.7 km/h 83 % 0.00 in /  0 mm
01:33 31.9 °F /  -0.1 °C 27.3 °F /  -2.6 °C 30.41 in /  1029.7 hPa NE 0.4 mph /  0.6 km/h 29.0 mph /  46.7 km/h 83 % 0.00 in /  0 mm
01:38 32.0 °F /  0 °C 27.7 °F /  -2.4 °C 30.42 in /  1030 hPa NE 1.4 mph /  2.3 km/h 29.0 mph /  46.7 km/h 84 % 0.00 in /  0 mm
01:43 32.0 °F /  0 °C 28.0 °F /  -2.2 °C 30.43 in /  1030.4 hPa Calm   29.0 mph /  46.7 km/h 85 % 0.00 in /  0 mm
01:48 32.1 °F /  0.1 °C 28.1 °F /  -2.2 °C 30.43 in /  1030.4 hPa ENE 1.7 mph /  2.7 km/h 29.0 mph /  46.7 km/h 85 % 0.00 in /  0 mm
01:53 32.2 °F /  0.1 °C 28.5 °F /  -1.9 °C 30.42 in /  1030 hPa ENE 1.3 mph /  2.1 km/h 29.0 mph /  46.7 km/h 86 % 0.00 in /  0 mm
01:58 32.5 °F /  0.3 °C 29.1 °F /  -1.6 °C 30.42 in /  1030 hPa ENE 1.9 mph /  3.1 km/h 29.0 mph /  46.7 km/h 87 % 0.00 in /  0 mm
02:03 32.9 °F /  0.5 °C 29.7 °F /  -1.3 °C 30.42 in /  1030 hPa East 1.2 mph /  1.9 km/h 29.0 mph /  46.7 km/h 88 % 0.00 in /  0 mm
02:08 33.2 °F /  0.7 °C 30.0 °F /  -1.1 °C 30.43 in /  1030.4 hPa SE 1.4 mph /  2.3 km/h 29.0 mph /  46.7 km/h 88 % 0.00 in /  0 mm
02:13 33.4 °F /  0.8 °C 30.2 °F /  -1 °C 30.43 in /  1030.4 hPa Calm   29.0 mph /  46.7 km/h 88 % 0.00 in /  0 mm
02:18 33.5 °F /  0.8 °C 30.3 °F /  -0.9 °C 30.43 in /  1030.4 hPa SE 0.2 mph /  0.3 km/h 29.0 mph /  46.7 km/h 88 % 0.00 in /  0 mm
02:23 33.7 °F /  0.9 °C 30.5 °F /  -0.8 °C 30.44 in /  1030.7 hPa SE 1.0 mph /  1.6 km/h 29.0 mph /  46.7 km/h 88 % 0.00 in /  0 mm
02:24 33.7 °F /  0.9 °C 30.5 °F /  -0.8 °C 30.44 in /  1030.7 hPa SE 1.0 mph /  1.6 km/h 29.0 mph /  46.7 km/h 88 % 0.00 in /  0 mm
02:29 33.8 °F /  1 °C 30.6 °F /  -0.8 °C 30.45 in /  1031 hPa SE 1.4 mph /  2.3 km/h 29.0 mph /  46.7 km/h 88 % 0.00 in /  0 mm
02:34 34.0 °F /  1.1 °C 30.5 °F /  -0.8 °C 30.45 in /  1031 hPa SSE 1.1 mph /  1.8 km/h 29.0 mph /  46.7 km/h 87 % 0.00 in /  0 mm
02:39 34.2 °F /  1.2 °C 30.4 °F /  -0.9 °C 30.45 in /  1031 hPa SSE 1.0 mph /  1.6 km/h 29.0 mph /  46.7 km/h 86 % 0.00 in /  0 mm
02:44 34.3 °F /  1.3 °C 30.3 °F /  -0.9 °C 30.44 in /  1030.7 hPa SSE 0.2 mph /  0.3 km/h 29.0 mph /  46.7 km/h 85 % 0.00 in /  0 mm
02:49 34.4 °F /  1.3 °C 30.1 °F /  -1.1 °C 30.44 in /  1030.7 hPa SSE 1.3 mph /  2.1 km/h 29.0 mph /  46.7 km/h 84 % 0.00 in /  0 mm
02:54 34.5 °F /  1.4 °C 29.9 °F /  -1.2 °C 30.44 in /  1030.7 hPa SE 1.4 mph /  2.3 km/h 29.0 mph /  46.7 km/h 83 % 0.00 in /  0 mm
02:59 34.7 °F /  1.5 °C 29.8 °F /  -1.2 °C 30.44 in /  1030.7 hPa SSE 1.0 mph /  1.6 km/h 29.0 mph /  46.7 km/h 82 % 0.00 in /  0 mm
03:04 34.8 °F /  1.6 °C 29.8 °F /  -1.2 °C 30.44 in /  1030.7 hPa SSE 1.0 mph /  1.6 km/h 2.0 mph /  3.2 km/h 82 % 0.00 in /  0 mm
03:09 34.8 °F /  1.6 °C 29.6 °F /  -1.3 °C 30.43 in /  1030.4 hPa Calm   2.0 mph /  3.2 km/h 81 % 0.00 in /  0 mm
03:14 34.8 °F /  1.6 °C 29.6 °F /  -1.3 °C 30.43 in /  1030.4 hPa Calm   2.0 mph /  3.2 km/h 81 % 0.00 in /  0 mm
03:19 34.8 °F /  1.6 °C 29.6 °F /  -1.3 °C 30.43 in /  1030.4 hPa Calm   1.0 mph /  1.6 km/h 81 % 0.00 in /  0 mm
03:24 34.8 °F /  1.6 °C 29.6 °F /  -1.3 °C 30.43 in /  1030.4 hPa Calm   2.0 mph /  3.2 km/h 81 % 0.00 in /  0 mm
03:29 34.7 °F /  1.5 °C 29.2 °F /  -1.6 °C 30.43 in /  1030.4 hPa Calm   3.0 mph /  4.8 km/h 80 % 0.00 in /  0 mm
03:34 34.6 °F /  1.4 °C 29.1 °F /  -1.6 °C 30.43 in /  1030.4 hPa Calm   29.0 mph /  46.7 km/h 80 % 0.00 in /  0 mm
03:39 34.5 °F /  1.4 °C 28.9 °F /  -1.7 °C 30.43 in /  1030.4 hPa Calm   1.0 mph /  1.6 km/h 80 % 0.00 in /  0 mm
03:44 34.4 °F /  1.3 °C 28.9 °F /  -1.7 °C 30.43 in /  1030.4 hPa Calm     80 % 0.00 in /  0 mm
03:49 34.2 °F /  1.2 °C 28.7 °F /  -1.8 °C 30.43 in /  1030.4 hPa Calm   2.0 mph /  3.2 km/h 80 % 0.00 in /  0 mm
03:54 34.1 °F /  1.2 °C 28.3 °F /  -2.1 °C 30.44 in /  1030.7 hPa Calm   2.0 mph /  3.2 km/h 79 % 0.00 in /  0 mm
03:59 34.1 °F /  1.2 °C 28.3 °F /  -2.1 °C 30.44 in /  1030.7 hPa SSE 0.1 mph /  0.2 km/h 29.0 mph /  46.7 km/h 79 % 0.00 in /  0 mm
04:04 34.1 °F /  1.2 °C 28.3 °F /  -2.1 °C 30.44 in /  1030.7 hPa Calm   2.0 mph /  3.2 km/h 79 % 0.00 in /  0 mm
04:09 34.1 °F /  1.2 °C 28.3 °F /  -2.1 °C 30.44 in /  1030.7 hPa Calm   3.0 mph /  4.8 km/h 79 % 0.00 in /  0 mm
04:14 34.0 °F /  1.1 °C 28.2 °F /  -2.1 °C 30.44 in /  1030.7 hPa SSE 1.0 mph /  1.6 km/h 2.0 mph /  3.2 km/h 79 % 0.00 in /  0 mm
04:19 34.0 °F /  1.1 °C 28.2 °F /  -2.1 °C 30.44 in /  1030.7 hPa SE 1.4 mph /  2.3 km/h 29.0 mph /  46.7 km/h 79 % 0.00 in /  0 mm
04:24 34.0 °F /  1.1 °C 28.2 °F /  -2.1 °C 30.44 in /  1030.7 hPa SE 0.8 mph /  1.3 km/h 29.0 mph /  46.7 km/h 79 % 0.00 in /  0 mm
04:29 34.1 °F /  1.2 °C 28.0 °F /  -2.2 °C 30.44 in /  1030.7 hPa SE 0.9 mph /  1.4 km/h 29.0 mph /  46.7 km/h 78 % 0.00 in /  0 mm
04:34 34.2 °F /  1.2 °C 28.1 °F /  -2.2 °C 30.45 in /  1031 hPa SSE 1.3 mph /  2.1 km/h 29.0 mph /  46.7 km/h 78 % 0.00 in /  0 mm
04:39 34.2 °F /  1.2 °C 28.1 °F /  -2.2 °C 30.45 in /  1031 hPa Calm   29.0 mph /  46.7 km/h 78 % 0.00 in /  0 mm
04:45 34.3 °F /  1.3 °C 27.8 °F /  -2.3 °C 30.46 in /  1031.4 hPa SE 2.0 mph /  3.2 km/h 29.0 mph /  46.7 km/h 77 % 0.00 in /  0 mm
04:50 34.3 °F /  1.3 °C 27.8 °F /  -2.3 °C 30.46 in /  1031.4 hPa SE 0.4 mph /  0.6 km/h 29.0 mph /  46.7 km/h 77 % 0.00 in /  0 mm
04:55 34.4 °F /  1.3 °C 27.9 °F /  -2.3 °C 30.46 in /  1031.4 hPa SE 0.8 mph /  1.3 km/h 29.0 mph /  46.7 km/h 77 % 0.00 in /  0 mm
05:00 34.3 °F /  1.3 °C 27.8 °F /  -2.3 °C 30.46 in /  1031.4 hPa Calm   29.0 mph /  46.7 km/h 77 % 0.00 in /  0 mm
05:05 34.4 °F /  1.3 °C 27.6 °F /  -2.4 °C 30.45 in /  1031 hPa ESE 1.6 mph /  2.6 km/h 29.0 mph /  46.7 km/h 76 % 0.00 in /  0 mm
05:10 34.3 °F /  1.3 °C 27.5 °F /  -2.5 °C 30.45 in /  1031 hPa ESE 1.7 mph /  2.7 km/h 29.0 mph /  46.7 km/h 76 % 0.00 in /  0 mm
05:15 34.2 °F /  1.2 °C 27.4 °F /  -2.6 °C 30.45 in /  1031 hPa ESE 0.1 mph /  0.2 km/h 29.0 mph /  46.7 km/h 76 % 0.00 in /  0 mm
05:20 34.2 °F /  1.2 °C 27.4 °F /  -2.6 °C 30.45 in /  1031 hPa ESE 0.1 mph /  0.2 km/h 29.0 mph /  46.7 km/h 76 % 0.00 in /  0 mm
05:25 34.1 °F /  1.2 °C 27.6 °F /  -2.4 °C 30.45 in /  1031 hPa Calm   29.0 mph /  46.7 km/h 77 % 0.00 in /  0 mm
05:30 34.1 °F /  1.2 °C 27.6 °F /  -2.4 °C 30.45 in /  1031 hPa Calm   29.0 mph /  46.7 km/h 77 % 0.00 in /  0 mm
05:35 34.1 °F /  1.2 °C 27.6 °F /  -2.4 °C 30.45 in /  1031 hPa Calm   29.0 mph /  46.7 km/h 77 % 0.00 in /  0 mm
05:40 34.1 °F /  1.2 °C 27.6 °F /  -2.4 °C 30.46 in /  1031.4 hPa ESE 0.4 mph /  0.6 km/h 29.0 mph /  46.7 km/h 77 % 0.00 in /  0 mm
05:45 34.1 °F /  1.2 °C 27.6 °F /  -2.4 °C 30.46 in /  1031.4 hPa Calm   29.0 mph /  46.7 km/h 77 % 0.00 in /  0 mm
05:50 34.1 °F /  1.2 °C 28.0 °F /  -2.2 °C 30.46 in /  1031.4 hPa Calm   29.0 mph /  46.7 km/h 78 % 0.00 in /  0 mm
05:55 34.1 °F /  1.2 °C 28.0 °F /  -2.2 °C 30.45 in /  1031 hPa Calm   29.0 mph /  46.7 km/h 78 % 0.00 in /  0 mm
06:00 34.1 °F /  1.2 °C 28.0 °F /  -2.2 °C 30.45 in /  1031 hPa Calm   29.0 mph /  46.7 km/h 78 % 0.00 in /  0 mm
06:06 34.1 °F /  1.2 °C 28.0 °F /  -2.2 °C 30.46 in /  1031.4 hPa ESE 1.0 mph /  1.6 km/h 29.0 mph /  46.7 km/h 78 % 0.00 in /  0 mm
06:11 34.1 °F /  1.2 °C 28.0 °F /  -2.2 °C 30.46 in /  1031.4 hPa Calm   29.0 mph /  46.7 km/h 78 % 0.00 in /  0 mm
06:16 34.2 °F /  1.2 °C 28.1 °F /  -2.2 °C 30.46 in /  1031.4 hPa Calm   29.0 mph /  46.7 km/h 78 % 0.00 in /  0 mm
06:21 34.3 °F /  1.3 °C 28.2 °F /  -2.1 °C 30.47 in /  1031.7 hPa Calm   29.0 mph /  46.7 km/h 78 % 0.00 in /  0 mm
06:26 34.3 °F /  1.3 °C 28.2 °F /  -2.1 °C 30.47 in /  1031.7 hPa Calm   29.0 mph /  46.7 km/h 78 % 0.00 in /  0 mm
06:31 34.3 °F /  1.3 °C 28.2 °F /  -2.1 °C 30.48 in /  1032.1 hPa Calm   29.0 mph /  46.7 km/h 78 % 0.00 in /  0 mm
06:36 34.4 °F /  1.3 °C 28.6 °F /  -1.9 °C 30.48 in /  1032.1 hPa Calm   29.0 mph /  46.7 km/h 79 % 0.00 in /  0 mm
06:41 34.4 °F /  1.3 °C 28.6 °F /  -1.9 °C 30.47 in /  1031.7 hPa Calm   29.0 mph /  46.7 km/h 79 % 0.00 in /  0 mm
06:46 34.4 °F /  1.3 °C 28.6 °F /  -1.9 °C 30.48 in /  1032.1 hPa Calm   29.0 mph /  46.7 km/h 79 % 0.00 in /  0 mm
06:51 34.4 °F /  1.3 °C 28.6 °F /  -1.9 °C 30.48 in /  1032.1 hPa ESE 0.5 mph /  0.8 km/h 29.0 mph /  46.7 km/h 79 % 0.00 in /  0 mm
06:56 34.4 °F /  1.3 °C 28.6 °F /  -1.9 °C 30.47 in /  1031.7 hPa ESE 0.5 mph /  0.8 km/h 29.0 mph /  46.7 km/h 79 % 0.00 in /  0 mm
07:01 34.4 °F /  1.3 °C 28.9 °F /  -1.7 °C 30.47 in /  1031.7 hPa ESE 0.2 mph /  0.3 km/h 29.0 mph /  46.7 km/h 80 % 0.00 in /  0 mm
07:06 34.3 °F /  1.3 °C 28.8 °F /  -1.8 °C 30.47 in /  1031.7 hPa ESE 2.0 mph /  3.2 km/h 29.0 mph /  46.7 km/h 80 % 0.00 in /  0 mm
07:11 34.3 °F /  1.3 °C 28.8 °F /  -1.8 °C 30.47 in /  1031.7 hPa ESE 0.3 mph /  0.5 km/h 29.0 mph /  46.7 km/h 80 % 0.00 in /  0 mm
07:16 34.2 °F /  1.2 °C 29.0 °F /  -1.7 °C 30.47 in /  1031.7 hPa East 1.3 mph /  2.1 km/h 29.0 mph /  46.7 km/h 81 % 0.00 in /  0 mm
07:22 34.3 °F /  1.3 °C 29.4 °F /  -1.4 °C 30.47 in /  1031.7 hPa East 1.1 mph /  1.8 km/h 29.0 mph /  46.7 km/h 82 % 0.00 in /  0 mm
07:27 34.4 °F /  1.3 °C 29.8 °F /  -1.2 °C 30.47 in /  1031.7 hPa East 2.6 mph /  4.2 km/h 29.0 mph /  46.7 km/h 83 % 0.00 in /  0 mm
07:32 34.7 °F /  1.5 °C 30.4 °F /  -0.9 °C 30.46 in /  1031.4 hPa ENE 4.1 mph /  6.6 km/h 29.0 mph /  46.7 km/h 84 % 0.00 in /  0 mm
07:37 35.2 °F /  1.8 °C 30.9 °F /  -0.6 °C 30.46 in /  1031.4 hPa ENE 6.3 mph /  10.1 km/h 29.0 mph /  46.7 km/h 84 % 0.00 in /  0 mm
07:42 36.0 °F /  2.2 °C 31.3 °F /  -0.4 °C 30.46 in /  1031.4 hPa NE 6.3 mph /  10.1 km/h 29.0 mph /  46.7 km/h 83 % 0.00 in /  0 mm
07:47 36.5 °F /  2.5 °C 31.5 °F /  -0.3 °C 30.46 in /  1031.4 hPa East 6.4 mph /  10.3 km/h 29.0 mph /  46.7 km/h 82 % 0.00 in /  0 mm
07:52 37.0 °F /  2.8 °C 31.7 °F /  -0.2 °C 30.46 in /  1031.4 hPa East 6.2 mph /  10 km/h 29.0 mph /  46.7 km/h 81 % 0.00 in /  0 mm
07:57 37.3 °F /  2.9 °C 32.0 °F /  0 °C 30.46 in /  1031.4 hPa East 5.3 mph /  8.5 km/h 29.0 mph /  46.7 km/h 81 % 0.00 in /  0 mm
08:02 37.6 °F /  3.1 °C 32.3 °F /  0.2 °C 30.46 in /  1031.4 hPa East 3.8 mph /  6.1 km/h 29.0 mph /  46.7 km/h 81 % 0.00 in /  0 mm
08:07 37.7 °F /  3.2 °C 32.1 °F /  0.1 °C 30.47 in /  1031.7 hPa ESE 2.5 mph /  4 km/h 29.0 mph /  46.7 km/h 80 % 0.00 in /  0 mm
08:12 37.8 °F /  3.2 °C 32.2 °F /  0.1 °C 30.47 in /  1031.7 hPa SE 1.5 mph /  2.4 km/h 29.0 mph /  46.7 km/h 80 % 0.00 in /  0 mm
08:17 37.9 °F /  3.3 °C 32.0 °F /  0 °C 30.47 in /  1031.7 hPa East 1.0 mph /  1.6 km/h 29.0 mph /  46.7 km/h 79 % 0.00 in /  0 mm
08:22 38.0 °F /  3.3 °C 32.4 °F /  0.2 °C 30.48 in /  1032.1 hPa East 1.4 mph /  2.3 km/h 29.0 mph /  46.7 km/h 80 % 0.00 in /  0 mm
08:27 38.0 °F /  3.3 °C 32.4 °F /  0.2 °C 30.48 in /  1032.1 hPa East 0.7 mph /  1.1 km/h 29.0 mph /  46.7 km/h 80 % 0.00 in /  0 mm
08:32 38.1 °F /  3.4 °C 32.8 °F /  0.4 °C 30.48 in /  1032.1 hPa East 2.2 mph /  3.5 km/h 29.0 mph /  46.7 km/h 81 % 0.00 in /  0 mm
08:38 38.1 °F /  3.4 °C 32.5 °F /  0.3 °C 30.48 in /  1032.1 hPa East 0.3 mph /  0.5 km/h 29.0 mph /  46.7 km/h 80 % 0.00 in /  0 mm
08:43 38.1 °F /  3.4 °C 32.8 °F /  0.4 °C 30.47 in /  1031.7 hPa East 2.8 mph /  4.5 km/h 29.0 mph /  46.7 km/h 81 % 0.00 in /  0 mm
08:48 38.1 °F /  3.4 °C 32.8 °F /  0.4 °C 30.47 in /  1031.7 hPa East 2.6 mph /  4.2 km/h 29.0 mph /  46.7 km/h 81 % 0.00 in /  0 mm
08:53 38.1 °F /  3.4 °C 33.1 °F /  0.6 °C 30.47 in /  1031.7 hPa East 1.6 mph /  2.6 km/h 29.0 mph /  46.7 km/h 82 % 0.00 in /  0 mm
08:58 38.1 °F /  3.4 °C 33.1 °F /  0.6 °C 30.48 in /  1032.1 hPa East 1.3 mph /  2.1 km/h 29.0 mph /  46.7 km/h 82 % 0.00 in /  0 mm
09:03 38.1 °F /  3.4 °C 33.4 °F /  0.8 °C 30.47 in /  1031.7 hPa East 2.4 mph /  3.9 km/h 29.0 mph /  46.7 km/h 83 % 0.00 in /  0 mm
09:08 38.1 °F /  3.4 °C 33.4 °F /  0.8 °C 30.47 in /  1031.7 hPa East 1.8 mph /  2.9 km/h 29.0 mph /  46.7 km/h 83 % 0.00 in /  0 mm
09:13 38.1 °F /  3.4 °C 33.4 °F /  0.8 °C 30.48 in /  1032.1 hPa East 0.4 mph /  0.6 km/h 29.0 mph /  46.7 km/h 83 % 0.00 in /  0 mm
09:18 38.2 °F /  3.4 °C 33.8 °F /  1 °C 30.48 in /  1032.1 hPa ENE 2.3 mph /  3.7 km/h 29.0 mph /  46.7 km/h 84 % 0.00 in /  0 mm
09:23 38.4 °F /  3.6 °C 34.3 °F /  1.3 °C 30.48 in /  1032.1 hPa ENE 2.9 mph /  4.7 km/h 29.0 mph /  46.7 km/h 85 % 0.00 in /  0 mm
09:28 38.6 °F /  3.7 °C 34.8 °F /  1.6 °C 30.49 in /  1032.4 hPa ENE 5.3 mph /  8.5 km/h 29.0 mph /  46.7 km/h 86 % 0.00 in /  0 mm
09:33 39.0 °F /  3.9 °C 35.2 °F /  1.8 °C 30.49 in /  1032.4 hPa NNE 4.8 mph /  7.7 km/h 29.0 mph /  46.7 km/h 86 % 0.00 in /  0 mm
09:38 39.3 °F /  4.1 °C 36.0 °F /  2.2 °C 30.50 in /  1032.7 hPa ENE 3.5 mph /  5.6 km/h 29.0 mph /  46.7 km/h 88 % 0.00 in /  0 mm
09:43 39.5 °F /  4.2 °C 36.2 °F /  2.3 °C 30.50 in /  1032.7 hPa ENE 3.7 mph /  6 km/h 29.0 mph /  46.7 km/h 88 % 0.00 in /  0 mm
09:48 39.6 °F /  4.2 °C 36.3 °F /  2.4 °C 30.50 in /  1032.7 hPa NE 1.8 mph /  2.9 km/h 29.0 mph /  46.7 km/h 88 % 0.00 in /  0 mm
09:53 39.6 °F /  4.2 °C 36.3 °F /  2.4 °C 30.50 in /  1032.7 hPa ENE 5.4 mph /  8.7 km/h 29.0 mph /  46.7 km/h 88 % 0.00 in /  0 mm
09:58 39.5 °F /  4.2 °C 36.2 °F /  2.3 °C 30.50 in /  1032.7 hPa NE 5.2 mph /  8.4 km/h 29.0 mph /  46.7 km/h 88 % 0.00 in /  0 mm
10:03 39.4 °F /  4.1 °C 35.9 °F /  2.2 °C 30.50 in /  1032.7 hPa ENE 4.4 mph /  7.1 km/h 29.0 mph /  46.7 km/h 87 % 0.00 in /  0 mm
10:08 39.4 °F /  4.1 °C 35.9 °F /  2.2 °C 30.50 in /  1032.7 hPa ENE 3.5 mph /  5.6 km/h 29.0 mph /  46.7 km/h 87 % 0.00 in /  0 mm
10:14 39.4 °F /  4.1 °C 35.9 °F /  2.2 °C 30.50 in /  1032.7 hPa ENE 5.6 mph /  9 km/h 29.0 mph /  46.7 km/h 87 % 0.00 in /  0 mm
10:19 39.4 °F /  4.1 °C 35.9 °F /  2.2 °C 30.50 in /  1032.7 hPa ENE 5.6 mph /  9 km/h 29.0 mph /  46.7 km/h 87 % 0.00 in /  0 mm
10:24 39.5 °F /  4.2 °C 36.0 °F /  2.2 °C 30.50 in /  1032.7 hPa NE 3.7 mph /  6 km/h 29.0 mph /  46.7 km/h 87 % 0.00 in /  0 mm
10:29 39.5 °F /  4.2 °C 36.0 °F /  2.2 °C 30.49 in /  1032.4 hPa ENE 3.9 mph /  6.3 km/h 29.0 mph /  46.7 km/h 87 % 0.00 in /  0 mm
10:34 39.5 °F /  4.2 °C 36.0 °F /  2.2 °C 30.50 in /  1032.7 hPa ENE 4.6 mph /  7.4 km/h 29.0 mph /  46.7 km/h 87 % 0.00 in /  0 mm
10:39 39.5 °F /  4.2 °C 36.0 °F /  2.2 °C 30.50 in /  1032.7 hPa NE 4.2 mph /  6.8 km/h 29.0 mph /  46.7 km/h 87 % 0.00 in /  0 mm
10:44 39.5 °F /  4.2 °C 36.0 °F /  2.2 °C 30.50 in /  1032.7 hPa ENE 3.1 mph /  5 km/h 29.0 mph /  46.7 km/h 87 % 0.00 in /  0 mm
10:49 39.5 °F /  4.2 °C 36.0 °F /  2.2 °C 30.49 in /  1032.4 hPa ENE 3.7 mph /  6 km/h 29.0 mph /  46.7 km/h 87 % 0.00 in /  0 mm
10:54 39.6 °F /  4.2 °C 36.0 °F /  2.2 °C 30.49 in /  1032.4 hPa ENE 3.7 mph /  6 km/h 29.0 mph /  46.7 km/h 87 % 0.00 in /  0 mm
10:59 39.7 °F /  4.3 °C 36.4 °F /  2.4 °C 30.49 in /  1032.4 hPa NE 5.1 mph /  8.2 km/h 29.0 mph /  46.7 km/h 88 % 0.00 in /  0 mm
11:04 39.7 °F /  4.3 °C 36.4 °F /  2.4 °C 30.49 in /  1032.4 hPa ENE 5.0 mph /  8 km/h 9.0 mph /  14.5 km/h 88 % 0.00 in /  0 mm
11:09 39.6 °F /  4.2 °C 36.3 °F /  2.4 °C 30.48 in /  1032.1 hPa ENE 5.0 mph /  8 km/h 8.0 mph /  12.9 km/h 88 % 0.00 in /  0 mm
11:14 39.6 °F /  4.2 °C 36.4 °F /  2.4 °C 30.48 in /  1032.1 hPa ENE 3.0 mph /  4.8 km/h 8.0 mph /  12.9 km/h 88 % 0.00 in /  0 mm
11:19 39.8 °F /  4.3 °C 36.8 °F /  2.7 °C 30.48 in /  1032.1 hPa ENE 6.0 mph /  9.7 km/h 9.0 mph /  14.5 km/h 89 % 0.00 in /  0 mm
11:24 39.8 °F /  4.3 °C 36.5 °F /  2.5 °C 30.48 in /  1032.1 hPa NE 6.0 mph /  9.7 km/h 10.0 mph /  16.1 km/h 88 % 0.00 in /  0 mm
11:29 39.7 °F /  4.3 °C 36.5 °F /  2.5 °C 30.47 in /  1031.7 hPa ENE 5.0 mph /  8 km/h 10.0 mph /  16.1 km/h 88 % 0.00 in /  0 mm
11:34 39.5 °F /  4.2 °C 36.2 °F /  2.3 °C 30.47 in /  1031.7 hPa NE 5.6 mph /  9 km/h 29.0 mph /  46.7 km/h 88 % 0.00 in /  0 mm
11:39 39.3 °F /  4.1 °C 35.8 °F /  2.1 °C 30.47 in /  1031.7 hPa ENE 6.0 mph /  9.7 km/h 29.0 mph /  46.7 km/h 87 % 0.00 in /  0 mm
11:44 39.2 °F /  4 °C 35.7 °F /  2.1 °C 30.46 in /  1031.4 hPa ENE 9.0 mph /  14.5 km/h 14.0 mph /  22.5 km/h 87 % 0.00 in /  0 mm
11:49 39.1 °F /  3.9 °C 35.8 °F /  2.1 °C 30.45 in /  1031 hPa ENE 6.0 mph /  9.7 km/h 12.0 mph /  19.3 km/h 88 % 0.00 in /  0 mm
11:54 39.0 °F /  3.9 °C 35.7 °F /  2.1 °C 30.45 in /  1031 hPa ENE 7.0 mph /  11.3 km/h 12.0 mph /  19.3 km/h 88 % 0.00 in /  0 mm
11:59 38.8 °F /  3.8 °C 35.6 °F /  2 °C 30.45 in /  1031 hPa ENE 6.5 mph /  10.5 km/h 29.0 mph /  46.7 km/h 88 % 0.00 in /  0 mm
12:04 38.7 °F /  3.7 °C 35.4 °F /  1.9 °C 30.44 in /  1030.7 hPa ENE 7.0 mph /  11.3 km/h 12.0 mph /  19.3 km/h 88 % 0.00 in /  0 mm
12:09 38.7 °F /  3.7 °C 35.7 °F /  2.1 °C 30.43 in /  1030.4 hPa ENE 7.0 mph /  11.3 km/h 10.0 mph /  16.1 km/h 89 % 0.00 in /  0 mm
12:14 38.8 °F /  3.8 °C 36.1 °F /  2.3 °C 30.43 in /  1030.4 hPa ENE 6.0 mph /  9.7 km/h 12.0 mph /  19.3 km/h 90 % 0.00 in /  0 mm
12:19 38.9 °F /  3.8 °C 36.2 °F /  2.3 °C 30.43 in /  1030.4 hPa ENE 6.0 mph /  9.7 km/h 12.0 mph /  19.3 km/h 90 % 0.00 in /  0 mm
12:24 39.0 °F /  3.9 °C 36.3 °F /  2.4 °C 30.42 in /  1030 hPa ENE 8.0 mph /  12.9 km/h 13.0 mph /  20.9 km/h 90 % 0.00 in /  0 mm
12:29 39.1 °F /  3.9 °C 36.4 °F /  2.4 °C 30.42 in /  1030 hPa ENE 7.1 mph /  11.4 km/h 29.0 mph /  46.7 km/h 90 % 0.00 in /  0 mm
12:34 39.3 °F /  4.1 °C 36.9 °F /  2.7 °C 30.42 in /  1030 hPa East 7.0 mph /  11.3 km/h 10.0 mph /  16.1 km/h 91 % 0.00 in /  0 mm
12:39 39.3 °F /  4.1 °C 36.9 °F /  2.7 °C 30.42 in /  1030 hPa ENE 7.0 mph /  11.3 km/h 12.0 mph /  19.3 km/h 91 % 0.00 in /  0 mm
12:44 39.4 °F /  4.1 °C 37.0 °F /  2.8 °C 30.42 in /  1030 hPa ENE 7.0 mph /  11.3 km/h 10.0 mph /  16.1 km/h 91 % 0.00 in /  0 mm
12:49 39.5 °F /  4.2 °C 37.1 °F /  2.8 °C 30.42 in /  1030 hPa East 7.0 mph /  11.3 km/h 12.0 mph /  19.3 km/h 91 % 0.00 in /  0 mm
12:54 39.7 °F /  4.3 °C 37.3 °F /  2.9 °C 30.42 in /  1030 hPa East 6.4 mph /  10.3 km/h 29.0 mph /  46.7 km/h 91 % 0.00 in /  0 mm
12:59 39.7 °F /  4.3 °C 37.3 °F /  2.9 °C 30.41 in /  1029.7 hPa East 7.2 mph /  11.6 km/h 29.0 mph /  46.7 km/h 91 % 0.00 in /  0 mm
13:04 39.8 °F /  4.3 °C 37.4 °F /  3 °C 30.41 in /  1029.7 hPa East 6.0 mph /  9.7 km/h 29.0 mph /  46.7 km/h 91 % 0.00 in /  0 mm
13:09 39.9 °F /  4.4 °C 37.5 °F /  3.1 °C 30.41 in /  1029.7 hPa ENE 6.3 mph /  10.1 km/h 29.0 mph /  46.7 km/h 91 % 0.00 in /  0 mm
13:14 39.9 °F /  4.4 °C 37.5 °F /  3.1 °C 30.41 in /  1029.7 hPa ENE 5.1 mph /  8.2 km/h 29.0 mph /  46.7 km/h 91 % 0.00 in /  0 mm
13:19 40.0 °F /  4.4 °C 37.6 °F /  3.1 °C 30.41 in /  1029.7 hPa East 6.8 mph /  10.9 km/h 29.0 mph /  46.7 km/h 91 % 0.00 in /  0 mm
13:24 40.0 °F /  4.4 °C 37.6 °F /  3.1 °C 30.41 in /  1029.7 hPa East 6.7 mph /  10.8 km/h 29.0 mph /  46.7 km/h 91 % 0.00 in /  0 mm
13:30 40.1 °F /  4.5 °C 37.7 °F /  3.2 °C 30.41 in /  1029.7 hPa ENE 6.0 mph /  9.7 km/h 29.0 mph /  46.7 km/h 91 % 0.00 in /  0 mm
13:35 40.1 °F /  4.5 °C 37.7 °F /  3.2 °C 30.40 in /  1029.3 hPa ENE 7.4 mph /  11.9 km/h 29.0 mph /  46.7 km/h 91 % 0.00 in /  0 mm
13:40 40.2 °F /  4.6 °C 37.8 °F /  3.2 °C 30.41 in /  1029.7 hPa ENE 6.6 mph /  10.6 km/h 29.0 mph /  46.7 km/h 91 % 0.00 in /  0 mm
13:45 40.2 °F /  4.6 °C 37.8 °F /  3.2 °C 30.41 in /  1029.7 hPa ENE 6.8 mph /  10.9 km/h 29.0 mph /  46.7 km/h 91 % 0.00 in /  0 mm
13:50 40.2 °F /  4.6 °C 37.8 °F /  3.2 °C 30.41 in /  1029.7 hPa East 7.2 mph /  11.6 km/h 29.0 mph /  46.7 km/h 91 % 0.00 in /  0 mm
13:55 40.2 °F /  4.6 °C 37.8 °F /  3.2 °C 30.41 in /  1029.7 hPa East 7.7 mph /  12.4 km/h 29.0 mph /  46.7 km/h 91 % 0.00 in /  0 mm
14:00 40.2 °F /  4.6 °C 37.8 °F /  3.2 °C 30.40 in /  1029.3 hPa East 7.1 mph /  11.4 km/h 29.0 mph /  46.7 km/h 91 % 0.00 in /  0 mm
14:05 40.2 °F /  4.6 °C 37.8 °F /  3.2 °C 30.40 in /  1029.3 hPa East 7.1 mph /  11.4 km/h 29.0 mph /  46.7 km/h 91 % 0.00 in /  0 mm
14:10 40.2 °F /  4.6 °C 38.1 °F /  3.4 °C 30.40 in /  1029.3 hPa East 6.9 mph /  11.1 km/h 29.0 mph /  46.7 km/h 92 % 0.00 in /  0 mm
14:15 40.2 °F /  4.6 °C 38.1 °F /  3.4 °C 30.40 in /  1029.3 hPa East 4.8 mph /  7.7 km/h 29.0 mph /  46.7 km/h 92 % 0.00 in /  0 mm
14:20 40.2 °F /  4.6 °C 38.1 °F /  3.4 °C 30.40 in /  1029.3 hPa ENE 5.8 mph /  9.3 km/h 29.0 mph /  46.7 km/h 92 % 0.00 in /  0 mm
14:25 40.2 °F /  4.6 °C 38.1 °F /  3.4 °C 30.39 in /  1029 hPa East 6.3 mph /  10.1 km/h 29.0 mph /  46.7 km/h 92 % 0.00 in /  0 mm
14:30 40.1 °F /  4.5 °C 38.0 °F /  3.3 °C 30.39 in /  1029 hPa ENE 7.6 mph /  12.2 km/h 29.0 mph /  46.7 km/h 92 % 0.01 in /  0.25 mm
14:35 40.1 °F /  4.5 °C 38.0 °F /  3.3 °C 30.39 in /  1029 hPa ENE 5.9 mph /  9.5 km/h 29.0 mph /  46.7 km/h 92 % 0.01 in /  0.25 mm
14:40 40.0 °F /  4.4 °C 38.1 °F /  3.4 °C 30.39 in /  1029 hPa East 7.8 mph /  12.6 km/h 29.0 mph /  46.7 km/h 93 % 0.01 in /  0.25 mm
14:46 40.0 °F /  4.4 °C 38.1 °F /  3.4 °C 30.39 in /  1029 hPa ENE 5.8 mph /  9.3 km/h 29.0 mph /  46.7 km/h 93 % 0.01 in /  0.25 mm
14:51 40.0 °F /  4.4 °C 38.1 °F /  3.4 °C 30.39 in /  1029 hPa ENE 6.1 mph /  9.8 km/h 29.0 mph /  46.7 km/h 93 % 0.01 in /  0.25 mm
14:56 40.0 °F /  4.4 °C 38.1 °F /  3.4 °C 30.39 in /  1029 hPa East 7.2 mph /  11.6 km/h 29.0 mph /  46.7 km/h 93 % 0.01 in /  0.25 mm
15:01 40.0 °F /  4.4 °C 38.1 °F /  3.4 °C 30.39 in /  1029 hPa East 6.2 mph /  10 km/h 29.0 mph /  46.7 km/h 93 % 0.01 in /  0.25 mm
15:06 40.0 °F /  4.4 °C 38.1 °F /  3.4 °C 30.39 in /  1029 hPa ENE 7.3 mph /  11.7 km/h 29.0 mph /  46.7 km/h 93 % 0.02 in /  0.51 mm
15:11 39.9 °F /  4.4 °C 38.0 °F /  3.3 °C 30.39 in /  1029 hPa NE 8.9 mph /  14.3 km/h 29.0 mph /  46.7 km/h 93 % 0.02 in /  0.51 mm
15:16 39.8 °F /  4.3 °C 37.9 °F /  3.3 °C 30.39 in /  1029 hPa East 9.3 mph /  15 km/h 29.0 mph /  46.7 km/h 93 % 0.02 in /  0.51 mm
15:21 39.7 °F /  4.3 °C 37.8 °F /  3.2 °C 30.39 in /  1029 hPa ENE 7.9 mph /  12.7 km/h 29.0 mph /  46.7 km/h 93 % 0.03 in /  0.76 mm
15:26 39.5 °F /  4.2 °C 37.6 °F /  3.1 °C 30.39 in /  1029 hPa ENE 8.4 mph /  13.5 km/h 29.0 mph /  46.7 km/h 93 % 0.03 in /  0.76 mm
15:31 39.3 °F /  4.1 °C 37.4 °F /  3 °C 30.38 in /  1028.7 hPa NNE 9.2 mph /  14.8 km/h 29.0 mph /  46.7 km/h 93 % 0.02 in /  0.51 mm
15:36 39.3 °F /  4.1 °C 37.4 °F /  3 °C 30.39 in /  1029 hPa East 6.4 mph /  10.3 km/h 29.0 mph /  46.7 km/h 93 % 0.03 in /  0.76 mm
15:41 39.1 °F /  3.9 °C 37.2 °F /  2.9 °C 30.39 in /  1029 hPa ENE 9.6 mph /  15.4 km/h 29.0 mph /  46.7 km/h 93 % 0.03 in /  0.76 mm
15:46 39.0 °F /  3.9 °C 37.1 °F /  2.8 °C 30.39 in /  1029 hPa ENE 8.3 mph /  13.4 km/h 29.0 mph /  46.7 km/h 93 % 0.03 in /  0.76 mm
15:51 39.0 °F /  3.9 °C 37.4 °F /  3 °C 30.38 in /  1028.7 hPa ENE 9.6 mph /  15.4 km/h 29.0 mph /  46.7 km/h 94 % 0.03 in /  0.76 mm
15:56 39.0 °F /  3.9 °C 37.4 °F /  3 °C 30.38 in /  1028.7 hPa East 11.4 mph /  18.3 km/h 29.0 mph /  46.7 km/h 94 % 0.03 in /  0.76 mm
16:01 38.9 °F /  3.8 °C 37.3 °F /  2.9 °C 30.38 in /  1028.7 hPa ENE 9.9 mph /  15.9 km/h 29.0 mph /  46.7 km/h 94 % 0.02 in /  0.51 mm
16:07 38.9 °F /  3.8 °C 37.0 °F /  2.8 °C 30.39 in /  1029 hPa ENE 10.4 mph /  16.7 km/h 29.0 mph /  46.7 km/h 93 % 0.03 in /  0.76 mm
16:12 38.9 °F /  3.8 °C 37.3 °F /  2.9 °C 30.38 in /  1028.7 hPa East 8.8 mph /  14.2 km/h 29.0 mph /  46.7 km/h 94 % 0.03 in /  0.76 mm
16:17 38.9 °F /  3.8 °C 37.3 °F /  2.9 °C 30.39 in /  1029 hPa ENE 11.0 mph /  17.7 km/h 29.0 mph /  46.7 km/h 94 % 0.03 in /  0.76 mm
16:22 38.9 °F /  3.8 °C 37.3 °F /  2.9 °C 30.38 in /  1028.7 hPa NE 8.4 mph /  13.5 km/h 29.0 mph /  46.7 km/h 94 % 0.02 in /  0.51 mm
16:27 38.9 °F /  3.8 °C 37.3 °F /  2.9 °C 30.38 in /  1028.7 hPa ENE 9.8 mph /  15.8 km/h 29.0 mph /  46.7 km/h 94 % 0.02 in /  0.51 mm
16:32 38.9 °F /  3.8 °C 37.3 °F /  2.9 °C 30.37 in /  1028.3 hPa ENE 10.0 mph /  16.1 km/h 29.0 mph /  46.7 km/h 94 % 0.02 in /  0.51 mm
16:37 38.9 °F /  3.8 °C 37.3 °F /  2.9 °C 30.37 in /  1028.3 hPa NNE 6.9 mph /  11.1 km/h 29.0 mph /  46.7 km/h 94 % 0.01 in /  0.25 mm
16:42 38.9 °F /  3.8 °C 37.3 °F /  2.9 °C 30.37 in /  1028.3 hPa ENE 8.9 mph /  14.3 km/h 29.0 mph /  46.7 km/h 94 % 0.01 in /  0.25 mm
16:47 38.9 °F /  3.8 °C 37.3 °F /  2.9 °C 30.37 in /  1028.3 hPa ENE 7.6 mph /  12.2 km/h 29.0 mph /  46.7 km/h 94 % 0.01 in /  0.25 mm
16:52 38.8 °F /  3.8 °C 37.2 °F /  2.9 °C 30.37 in /  1028.3 hPa ENE 8.5 mph /  13.7 km/h 29.0 mph /  46.7 km/h 94 % 0.01 in /  0.25 mm
16:57 38.8 °F /  3.8 °C 37.5 °F /  3.1 °C 30.37 in /  1028.3 hPa ENE 8.1 mph /  13 km/h 29.0 mph /  46.7 km/h 95 % 0.01 in /  0.25 mm
17:02 38.8 °F /  3.8 °C 37.2 °F /  2.9 °C 30.37 in /  1028.3 hPa ENE 8.2 mph /  13.2 km/h 29.0 mph /  46.7 km/h 94 % 0.01 in /  0.25 mm
17:08 38.8 °F /  3.8 °C 37.5 °F /  3.1 °C 30.37 in /  1028.3 hPa ENE 7.8 mph /  12.6 km/h 29.0 mph /  46.7 km/h 95 % 0.00 in /  0 mm
17:13 38.8 °F /  3.8 °C 37.5 °F /  3.1 °C 30.37 in /  1028.3 hPa NE 10.2 mph /  16.4 km/h 29.0 mph /  46.7 km/h 95 % 0.00 in /  0 mm
17:18 38.8 °F /  3.8 °C 37.5 °F /  3.1 °C 30.36 in /  1028 hPa ENE 9.4 mph /  15.1 km/h 29.0 mph /  46.7 km/h 95 % 0.00 in /  0 mm
17:23 38.8 °F /  3.8 °C 37.5 °F /  3.1 °C 30.35 in /  1027.7 hPa ENE 8.7 mph /  14 km/h 29.0 mph /  46.7 km/h 95 % 0.00 in /  0 mm
17:28 38.8 °F /  3.8 °C 37.5 °F /  3.1 °C 30.36 in /  1028 hPa NE 7.1 mph /  11.4 km/h 29.0 mph /  46.7 km/h 95 % 0.00 in /  0 mm
17:33 38.8 °F /  3.8 °C 37.5 °F /  3.1 °C 30.36 in /  1028 hPa ENE 10.8 mph /  17.4 km/h 29.0 mph /  46.7 km/h 95 % 0.00 in /  0 mm
17:38 38.9 °F /  3.8 °C 37.6 °F /  3.1 °C 30.36 in /  1028 hPa ENE 9.8 mph /  15.8 km/h 29.0 mph /  46.7 km/h 95 % 0.00 in /  0 mm
17:43 38.9 °F /  3.8 °C 37.6 °F /  3.1 °C 30.36 in /  1028 hPa ENE 8.3 mph /  13.4 km/h 29.0 mph /  46.7 km/h 95 % 0.00 in /  0 mm
17:48 38.9 °F /  3.8 °C 37.6 °F /  3.1 °C 30.36 in /  1028 hPa ENE 8.5 mph /  13.7 km/h 29.0 mph /  46.7 km/h 95 % 0.00 in /  0 mm
17:53 38.9 °F /  3.8 °C 37.6 °F /  3.1 °C 30.36 in /  1028 hPa ENE 10.3 mph /  16.6 km/h 29.0 mph /  46.7 km/h 95 % 0.00 in /  0 mm
17:58 38.8 °F /  3.8 °C 37.5 °F /  3.1 °C 30.35 in /  1027.7 hPa ENE 10.5 mph /  16.9 km/h 29.0 mph /  46.7 km/h 95 % 0.01 in /  0.25 mm
18:01 38.8 °F /  3.8 °C 37.5 °F /  3.1 °C 30.35 in /  1027.7 hPa ENE 8.2 mph /  13.2 km/h 29.0 mph /  46.7 km/h 95 % 0.01 in /  0.25 mm
18:06 38.8 °F /  3.8 °C 37.5 °F /  3.1 °C 30.35 in /  1027.7 hPa ENE 8.1 mph /  13 km/h 29.0 mph /  46.7 km/h 95 % 0.01 in /  0.25 mm
18:11 38.8 °F /  3.8 °C 37.8 °F /  3.2 °C 30.35 in /  1027.7 hPa NE 9.9 mph /  15.9 km/h 29.0 mph /  46.7 km/h 96 % 0.01 in /  0.25 mm
18:16 38.9 °F /  3.8 °C 37.9 °F /  3.3 °C 30.35 in /  1027.7 hPa ENE 8.0 mph /  12.9 km/h 29.0 mph /  46.7 km/h 96 % 0.02 in /  0.51 mm
18:21 38.9 °F /  3.8 °C 37.9 °F /  3.3 °C 30.35 in /  1027.7 hPa ENE 7.1 mph /  11.4 km/h 29.0 mph /  46.7 km/h 96 % 0.02 in /  0.51 mm
18:26 38.9 °F /  3.8 °C 37.9 °F /  3.3 °C 30.35 in /  1027.7 hPa ENE 8.4 mph /  13.5 km/h 29.0 mph /  46.7 km/h 96 % 0.02 in /  0.51 mm
18:31 38.9 °F /  3.8 °C 37.9 °F /  3.3 °C 30.36 in /  1028 hPa ENE 7.4 mph /  11.9 km/h 29.0 mph /  46.7 km/h 96 % 0.02 in /  0.51 mm
18:36 38.9 °F /  3.8 °C 37.9 °F /  3.3 °C 30.36 in /  1028 hPa ENE 8.3 mph /  13.4 km/h 29.0 mph /  46.7 km/h 96 % 0.03 in /  0.76 mm
18:41 38.9 °F /  3.8 °C 37.9 °F /  3.3 °C 30.35 in /  1027.7 hPa ENE 7.6 mph /  12.2 km/h 29.0 mph /  46.7 km/h 96 % 0.03 in /  0.76 mm
18:46 38.9 °F /  3.8 °C 37.9 °F /  3.3 °C 30.35 in /  1027.7 hPa East 7.4 mph /  11.9 km/h 29.0 mph /  46.7 km/h 96 % 0.03 in /  0.76 mm
18:51 39.0 °F /  3.9 °C 38.0 °F /  3.3 °C 30.35 in /  1027.7 hPa East 8.4 mph /  13.5 km/h 29.0 mph /  46.7 km/h 96 % 0.03 in /  0.76 mm
18:57 39.0 °F /  3.9 °C 38.0 °F /  3.3 °C 30.35 in /  1027.7 hPa ENE 10.2 mph /  16.4 km/h 29.0 mph /  46.7 km/h 96 % 0.04 in /  1.02 mm
19:02 39.1 °F /  3.9 °C 38.1 °F /  3.4 °C 30.35 in /  1027.7 hPa ENE 7.7 mph /  12.4 km/h 29.0 mph /  46.7 km/h 96 % 0.03 in /  0.76 mm
19:07 39.1 °F /  3.9 °C 38.1 °F /  3.4 °C 30.35 in /  1027.7 hPa ENE 7.7 mph /  12.4 km/h 29.0 mph /  46.7 km/h 96 % 0.03 in /  0.76 mm
19:12 39.2 °F /  4 °C 38.2 °F /  3.4 °C 30.35 in /  1027.7 hPa East 6.9 mph /  11.1 km/h 29.0 mph /  46.7 km/h 96 % 0.03 in /  0.76 mm
19:17 39.4 °F /  4.1 °C 38.6 °F /  3.7 °C 30.35 in /  1027.7 hPa East 8.2 mph /  13.2 km/h 29.0 mph /  46.7 km/h 97 % 0.03 in /  0.76 mm
19:22 39.4 °F /  4.1 °C 38.4 °F /  3.6 °C 30.35 in /  1027.7 hPa ENE 8.6 mph /  13.8 km/h 29.0 mph /  46.7 km/h 96 % 0.03 in /  0.76 mm
19:27 39.4 °F /  4.1 °C 38.6 °F /  3.7 °C 30.34 in /  1027.3 hPa NE 9.8 mph /  15.8 km/h 29.0 mph /  46.7 km/h 97 % 0.03 in /  0.76 mm
19:32 39.5 °F /  4.2 °C 38.7 °F /  3.7 °C 30.34 in /  1027.3 hPa ENE 8.9 mph /  14.3 km/h 29.0 mph /  46.7 km/h 97 % 0.03 in /  0.76 mm
19:37 39.6 °F /  4.2 °C 38.8 °F /  3.8 °C 30.34 in /  1027.3 hPa ENE 9.0 mph /  14.5 km/h 29.0 mph /  46.7 km/h 97 % 0.02 in /  0.51 mm
19:42 39.7 °F /  4.3 °C 38.9 °F /  3.8 °C 30.34 in /  1027.3 hPa ENE 10.2 mph /  16.4 km/h 29.0 mph /  46.7 km/h 97 % 0.02 in /  0.51 mm
19:47 39.6 °F /  4.2 °C 38.8 °F /  3.8 °C 30.34 in /  1027.3 hPa ENE 12.2 mph /  19.6 km/h 29.0 mph /  46.7 km/h 97 % 0.02 in /  0.51 mm
19:52 39.4 °F /  4.1 °C 38.6 °F /  3.7 °C 30.34 in /  1027.3 hPa ENE 10.2 mph /  16.4 km/h 29.0 mph /  46.7 km/h 97 % 0.02 in /  0.51 mm
19:57 39.3 °F /  4.1 °C 38.5 °F /  3.6 °C 30.34 in /  1027.3 hPa ENE 10.1 mph /  16.3 km/h 29.0 mph /  46.7 km/h 97 % 0.01 in /  0.25 mm
20:03 39.2 °F /  4 °C 38.2 °F /  3.4 °C 30.34 in /  1027.3 hPa NE 9.6 mph /  15.4 km/h 29.0 mph /  46.7 km/h 96 % 0.01 in /  0.25 mm
20:08 39.1 °F /  3.9 °C 38.1 °F /  3.4 °C 30.34 in /  1027.3 hPa NE 9.8 mph /  15.8 km/h 29.0 mph /  46.7 km/h 96 % 0.01 in /  0.25 mm
20:13 38.8 °F /  3.8 °C 37.8 °F /  3.2 °C 30.34 in /  1027.3 hPa ENE 9.1 mph /  14.6 km/h 29.0 mph /  46.7 km/h 96 % 0.01 in /  0.25 mm
20:18 38.5 °F /  3.6 °C 37.5 °F /  3.1 °C 30.33 in /  1027 hPa ENE 9.9 mph /  15.9 km/h 29.0 mph /  46.7 km/h 96 % 0.00 in /  0 mm
20:23 38.4 °F /  3.6 °C 37.4 °F /  3 °C 30.32 in /  1026.6 hPa ENE 7.5 mph /  12.1 km/h 29.0 mph /  46.7 km/h 96 % 0.00 in /  0 mm
20:28 38.2 °F /  3.4 °C 37.2 °F /  2.9 °C 30.32 in /  1026.6 hPa ENE 9.2 mph /  14.8 km/h 29.0 mph /  46.7 km/h 96 % 0.00 in /  0 mm
20:33 38.2 °F /  3.4 °C 37.2 °F /  2.9 °C 30.33 in /  1027 hPa ENE 9.4 mph /  15.1 km/h 29.0 mph /  46.7 km/h 96 % 0.00 in /  0 mm
20:38 38.2 °F /  3.4 °C 37.2 °F /  2.9 °C 30.32 in /  1026.6 hPa ENE 8.0 mph /  12.9 km/h 29.0 mph /  46.7 km/h 96 % 0.00 in /  0 mm
20:43 38.2 °F /  3.4 °C 37.4 °F /  3 °C 30.31 in /  1026.3 hPa ENE 9.6 mph /  15.4 km/h 29.0 mph /  46.7 km/h 97 % 0.00 in /  0 mm
20:48 38.2 °F /  3.4 °C 37.4 °F /  3 °C 30.31 in /  1026.3 hPa ENE 10.3 mph /  16.6 km/h 29.0 mph /  46.7 km/h 97 % 0.00 in /  0 mm
20:53 38.2 °F /  3.4 °C 37.4 °F /  3 °C 30.31 in /  1026.3 hPa ENE 10.6 mph /  17.1 km/h 29.0 mph /  46.7 km/h 97 % 0.00 in /  0 mm
20:58 38.3 °F /  3.5 °C 37.5 °F /  3.1 °C 30.30 in /  1026 hPa ENE 10.7 mph /  17.2 km/h 29.0 mph /  46.7 km/h 97 % 0.00 in /  0 mm
21:03 38.3 °F /  3.5 °C 37.5 °F /  3.1 °C 30.30 in /  1026 hPa ENE 11.0 mph /  17.7 km/h 29.0 mph /  46.7 km/h 97 % 0.00 in /  0 mm
21:08 38.4 °F /  3.6 °C 37.6 °F /  3.1 °C 30.29 in /  1025.6 hPa ENE 11.1 mph /  17.9 km/h 29.0 mph /  46.7 km/h 97 % 0.00 in /  0 mm
21:13 38.4 °F /  3.6 °C 37.6 °F /  3.1 °C 30.29 in /  1025.6 hPa ENE 10.3 mph /  16.6 km/h 29.0 mph /  46.7 km/h 97 % 0.00 in /  0 mm
21:18 38.5 °F /  3.6 °C 37.7 °F /  3.2 °C 30.29 in /  1025.6 hPa ENE 9.6 mph /  15.4 km/h 29.0 mph /  46.7 km/h 97 % 0.00 in /  0 mm
21:23 38.5 °F /  3.6 °C 37.7 °F /  3.2 °C 30.29 in /  1025.6 hPa ENE 11.4 mph /  18.3 km/h 29.0 mph /  46.7 km/h 97 % 0.00 in /  0 mm
21:29 38.5 °F /  3.6 °C 37.7 °F /  3.2 °C 30.29 in /  1025.6 hPa ENE 10.5 mph /  16.9 km/h 29.0 mph /  46.7 km/h 97 % 0.00 in /  0 mm
21:34 38.6 °F /  3.7 °C 37.8 °F /  3.2 °C 30.28 in /  1025.3 hPa ENE 9.7 mph /  15.6 km/h 29.0 mph /  46.7 km/h 97 % 0.00 in /  0 mm
21:39 38.7 °F /  3.7 °C 37.9 °F /  3.3 °C 30.28 in /  1025.3 hPa ENE 9.2 mph /  14.8 km/h 29.0 mph /  46.7 km/h 97 % 0.00 in /  0 mm
21:44 38.7 °F /  3.7 °C 37.9 °F /  3.3 °C 30.27 in /  1024.9 hPa NE 11.6 mph /  18.7 km/h 29.0 mph /  46.7 km/h 97 % 0.00 in /  0 mm
21:49 38.7 °F /  3.7 °C 37.9 °F /  3.3 °C 30.27 in /  1024.9 hPa East 11.3 mph /  18.2 km/h 29.0 mph /  46.7 km/h 97 % 0.00 in /  0 mm
21:54 38.6 °F /  3.7 °C 37.6 °F /  3.1 °C 30.27 in /  1024.9 hPa ENE 13.4 mph /  21.6 km/h 29.0 mph /  46.7 km/h 96 % 0.00 in /  0 mm
21:59 38.5 °F /  3.6 °C 37.5 °F /  3.1 °C 30.27 in /  1024.9 hPa ENE 10.8 mph /  17.4 km/h 29.0 mph /  46.7 km/h 96 % 0.00 in /  0 mm
22:04 38.4 °F /  3.6 °C 37.4 °F /  3 °C 30.27 in /  1024.9 hPa ENE 9.4 mph /  15.1 km/h 29.0 mph /  46.7 km/h 96 % 0.00 in /  0 mm
22:09 38.4 °F /  3.6 °C 37.6 °F /  3.1 °C 30.28 in /  1025.3 hPa ENE 9.5 mph /  15.3 km/h 29.0 mph /  46.7 km/h 97 % 0.00 in /  0 mm
22:14 38.4 °F /  3.6 °C 37.6 °F /  3.1 °C 30.28 in /  1025.3 hPa ENE 11.3 mph /  18.2 km/h 29.0 mph /  46.7 km/h 97 % 0.01 in /  0.25 mm
22:19 38.4 °F /  3.6 °C 37.6 °F /  3.1 °C 30.28 in /  1025.3 hPa ENE 9.5 mph /  15.3 km/h 29.0 mph /  46.7 km/h 97 % 0.01 in /  0.25 mm
22:24 38.4 °F /  3.6 °C 37.6 °F /  3.1 °C 30.28 in /  1025.3 hPa ENE 10.4 mph /  16.7 km/h 29.0 mph /  46.7 km/h 97 % 0.01 in /  0.25 mm
22:30 38.5 °F /  3.6 °C 37.7 °F /  3.2 °C 30.27 in /  1024.9 hPa ENE 12.0 mph /  19.3 km/h 29.0 mph /  46.7 km/h 97 % 0.01 in /  0.25 mm
22:35 38.5 °F /  3.6 °C 37.7 °F /  3.2 °C 30.26 in /  1024.6 hPa ENE 10.9 mph /  17.5 km/h 29.0 mph /  46.7 km/h 97 % 0.01 in /  0.25 mm
22:40 38.6 °F /  3.7 °C 37.8 °F /  3.2 °C 30.27 in /  1024.9 hPa ENE 10.0 mph /  16.1 km/h 29.0 mph /  46.7 km/h 97 % 0.01 in /  0.25 mm
22:45 38.6 °F /  3.7 °C 37.8 °F /  3.2 °C 30.28 in /  1025.3 hPa ENE 8.0 mph /  12.9 km/h 29.0 mph /  46.7 km/h 97 % 0.01 in /  0.25 mm
22:50 38.6 °F /  3.7 °C 37.8 °F /  3.2 °C 30.27 in /  1024.9 hPa ENE 10.5 mph /  16.9 km/h 29.0 mph /  46.7 km/h 97 % 0.01 in /  0.25 mm
22:55 38.6 °F /  3.7 °C 37.8 °F /  3.2 °C 30.27 in /  1024.9 hPa NE 9.7 mph /  15.6 km/h 29.0 mph /  46.7 km/h 97 % 0.01 in /  0.25 mm
23:00 38.6 °F /  3.7 °C 37.8 °F /  3.2 °C 30.27 in /  1024.9 hPa ENE 11.2 mph /  18 km/h 29.0 mph /  46.7 km/h 97 % 0.01 in /  0.25 mm
23:05 38.7 °F /  3.7 °C 37.9 °F /  3.3 °C 30.27 in /  1024.9 hPa ENE 10.2 mph /  16.4 km/h 29.0 mph /  46.7 km/h 97 % 0.01 in /  0.25 mm
23:10 38.7 °F /  3.7 °C 37.9 °F /  3.3 °C 30.27 in /  1024.9 hPa NE 8.7 mph /  14 km/h 29.0 mph /  46.7 km/h 97 % 0.01 in /  0.25 mm
23:15 38.8 °F /  3.8 °C 38.0 °F /  3.3 °C 30.26 in /  1024.6 hPa NE 8.5 mph /  13.7 km/h 29.0 mph /  46.7 km/h 97 % 0.00 in /  0 mm
23:20 38.7 °F /  3.7 °C 37.9 °F /  3.3 °C 30.26 in /  1024.6 hPa ENE 8.6 mph /  13.8 km/h 29.0 mph /  46.7 km/h 97 % 0.01 in /  0.25 mm
23:25 38.7 °F /  3.7 °C 37.9 °F /  3.3 °C 30.26 in /  1024.6 hPa ENE 10.2 mph /  16.4 km/h 29.0 mph /  46.7 km/h 97 % 0.01 in /  0.25 mm
23:30 38.7 °F /  3.7 °C 37.9 °F /  3.3 °C 30.25 in /  1024.3 hPa East 9.4 mph /  15.1 km/h 29.0 mph /  46.7 km/h 97 % 0.01 in /  0.25 mm
23:31 38.7 °F /  3.7 °C 37.9 °F /  3.3 °C 30.25 in /  1024.3 hPa ENE 9.3 mph /  15 km/h 29.0 mph /  46.7 km/h 97 % 0.01 in /  0.25 mm
23:36 38.7 °F /  3.7 °C 37.9 °F /  3.3 °C 30.25 in /  1024.3 hPa ENE 10.1 mph /  16.3 km/h 29.0 mph /  46.7 km/h 97 % 0.01 in /  0.25 mm
23:41 38.7 °F /  3.7 °C 37.9 °F /  3.3 °C 30.25 in /  1024.3 hPa NE 10.2 mph /  16.4 km/h 29.0 mph /  46.7 km/h 97 % 0.01 in /  0.25 mm
23:46 38.7 °F /  3.7 °C 37.9 °F /  3.3 °C 30.25 in /  1024.3 hPa ENE 9.3 mph /  15 km/h 29.0 mph /  46.7 km/h 97 % 0.01 in /  0.25 mm
23:51 38.7 °F /  3.7 °C 37.9 °F /  3.3 °C 30.25 in /  1024.3 hPa ENE 10.2 mph /  16.4 km/h 29.0 mph /  46.7 km/h 97 % 0.01 in /  0.25 mm
23:56 38.7 °F /  3.7 °C 37.9 °F /  3.3 °C 30.24 in /  1023.9 hPa NE 10.2 mph /  16.4 km/h 29.0 mph /  46.7 km/h 97 % 0.01 in /  0.25 mm
Crab Meadow Weather
Compliments of Weather Underground - 3 mb

Script developed by  Jim McMurry - jmcmurry@mwt.net Adapted for the template by  Wim van der Kuil - Leuven-Template.eu

Weather Terms: Outlook - A hazardous weather outlook is issued daily to indicate that a hazardous weather or hydrologic event may occur in the next several days. The outlook will include information about potential severe thunderstorms , heavy rain or flooding, winter weather, extremes of heat or cold, etc., that may develop over the next 7 days with an emphasis on the first 24 hours of the forecast. It is intended to provide information to those who need considerable lead time to prepare for the event.